Content
SEND FEEDBACK

Daily
Averages
Monthly
Summary
United States of America

REDSTONE, COLORADO


Home > North America > United States > Colorado
Elevation: 8103 feet     Latitude: 39 12N     Longitude: 107 18W

WEATHER
 
SELECT A DAY
Number of Records: 185,775;   Date Range: 1/1/95 - 7/23/14
 
SHARE

PRINT THIS DATA

[ ← Previous Day ]
WEATHER ALMANAC - JANUARY 23, 2013
[ Next Day → ]
[ °C ]   °F
Weather ElementAverageHighLow
Temperature23.5 °F39.9 °F (11:53 am)7 °F (4:53 am)
Dewpoint3.5 °F14 °F (4:53 pm)-6 °F (5:53 am)
Humidity44 %58 % (4:53 am)23 % (11:53 am)
Barometer30.41 in30.54 in (6:53 am)30.27 in (11:53 pm)
Wind Speed4.5 mph9.2 mph (9:53 pm)
Weather ElementAverage
Visibility10 mi
Wind DirectionSSE (143.9 °)

Weather ElementTotal
Precipitation---
Heating Degree Days41.6 (Base 65)
Averaged from 23 records on January 23, 2013
WEATHER CONDITIONS BREAKOUT
WIND DIRECTION BREAKOUT
WEATHER BY HOUR - JANUARY 23, 2013
[ °C ]   °F
Local TimeTemperatureDewpointHumidityBarometerVisibilityWind DirectionWind SpeedGust SpeedPrecipitationEventsConditions
1:53 AM10.9 °F-5.1 °F49 %30.43 in10.0 miSouth (190°)6.9 mphClear
2:53 AM10.0 °F-4.0 °F53 %30.42 in10.0 miSouth (190°)5.8 mphClear
3:53 AM10.0 °F-5.1 °F51 %30.42 in10.0 miSouth (170°)5.8 mphClear
4:53 AM7.0 °F-5.1 °F58 %30.48 in10.0 miSSE (160°)4.6 mphClear
5:53 AM9.0 °F-6.0 °F51 %30.51 in10.0 miSSE (160°)6.9 mphClear
6:53 AM9.0 °F-6.0 °F51 %30.54 in10.0 miSSE (160°)8.1 mphClear
7:53 AM7.0 °F-6.0 °F55 %30.53 in10.0 miVariable3.5 mphClear
8:53 AM18.0 °F0.0 °F45 %30.50 in10.0 miSSE (150°)3.5 mphClear
9:53 AM26.1 °F1.9 °F35 %30.48 in10.0 miCalmClear
10:53 AM33.1 °F1.9 °F27 %30.38 in10.0 miCalmClear
11:53 AM39.9 °F5.0 °F23 %30.34 in10.0 miNNW (330°)8.1 mphClear
12:53 PM37.9 °F7.0 °F28 %30.34 in10.0 miNNW (340°)5.8 mphClear
1:53 PM39.0 °F8.1 °F28 %30.33 in10.0 miNNW (340°)6.9 mphClear
2:53 PM37.9 °F10.9 °F33 %30.35 in10.0 miCalmClear
3:53 PM36.0 °F9.0 °F33 %30.36 in10.0 miCalmClear
4:53 PM30.9 °F14.0 °F50 %30.40 in10.0 miCalmClear
5:53 PM30.0 °F10.9 °F45 %30.41 in10.0 miCalmClear
6:53 PM28.9 °F10.9 °F47 %30.42 in10.0 miSouth (190°)4.6 mphClear
7:53 PM28.9 °F9.0 °F43 %30.42 in10.0 miSouth (190°)6.9 mphClear
8:53 PM24.1 °F8.1 °F51 %30.39 in10.0 miSouth (190°)5.8 mphClear
9:53 PM23.0 °F8.1 °F53 %30.35 in10.0 miSouth (190°)9.2 mphClear
10:53 PM21.9 °F6.1 °F51 %30.31 in10.0 miSouth (190°)6.9 mphClear
11:53 PM21.0 °F6.1 °F53 %30.27 in10.0 miSouth (170°)3.5 mphClear
Hourly data recorded from KASE, located miles away from Redstone, Colorado







STORIES FROM OUR PARTNERS